{"data":{"norad_id":66597,"intl_designator":"2025-270K","name":"STARLINK-35820","alt_names":[],"object_type":"PAYLOAD","status":"ACTIVE","operator":null,"country":"US","launch_date":"2025-11-22","launch_site_code":"AFETR","launch_vehicle":null,"mission":null,"orbit_class":"UNKNOWN","rcs_meters":null,"size_class":null,"mass_kg":null,"dimensions":null,"purposes":["comms"],"wikipedia_slug":null,"has_3d_model":false,"image_url":null,"decayed_at":null,"tle_current":{"epoch":"2026-05-24T23:42:49.574592Z","epoch_age_seconds":70083,"freshness":"FRESH","line1":"1 66597U 25270K   26144.98807378  .00030688  00000+0  11196-2 0  9990","line2":"2 66597  43.0027 345.3841 0001438 273.6511  86.4176 15.27594524 29489","mean_motion":15.27594524,"eccentricity":0.0001438,"inclination_deg":43.0027,"raan_deg":345.3841,"arg_perigee_deg":273.6511,"mean_anomaly_deg":86.4176,"bstar":0.0011196,"rev_number":2948,"period_min":94.265852448159,"perigee_km":482.01897399646,"apogee_km":483.99223861004,"semimajor_km":6861.1426063032,"source":"CELESTRAK","updated_at":"2026-05-25T13:38:21.288784Z"}}}